Location: Unspecified
(0.0000°N, 0.0000°E)
Time: 02:55:49
(UTC+00:00)

Fuji - Visible Passes

Search period start: 16 May 2026 00:00
Search period end: 26 May 2026 00:00
Orbit: 1479 x 1496 km, 50.0° (Epoch: 14 May)

Date Brightness Start Highest point End Pass type
(mag) Time Alt. Az. Time Alt. Az. Time Alt. Az.
16 May ? 01:27:15 12° NE 01:27:15 12° NE 01:27:47 10° NE visible
16 May ? 03:22:57 13° NNW 03:22:57 13° NNW 03:24:52 10° NNW visible
17 May ? 02:31:27 16° N 02:31:27 16° N 02:33:26 10° N visible
18 May ? 01:39:53 12° NNE 01:39:53 12° NNE 01:40:33 10° NNE visible
